Lexington, NE

10:33 AM CDT on October 18, 2017 (GMT -0500)
Kelly

Weather History for KLXN - May, 2013

Change the Weather History Date:

Friday, May 31, 2013

  Actual Average Record
Temperature  
Mean Temperature 62 °F -  
Max Temperature 74 °F 73 °F 98 °F (2002)
Min Temperature 50 °F 48 °F 40 °F (2015)
Degree Days  
Heating Degree Days 3    
Growing Degree Days 12 (Base 50)    
Moisture  
Dew Point 45 °F    
Average Humidity 57    
Maximum Humidity 84    
Minimum Humidity 30    
Precipitation  
Precipitation 0.00 in - - ()
Sea Level Pressure  
Sea Level Pressure 29.74 in    
Wind  
Wind Speed 14 mph (WNW)    
Max Wind Speed 31 mph    
Max Gust Speed 39 mph    
Visibility 10 miles    
Events      
Averages and records for this station are not official NWS values.
T = Trace of Precipitation, MM = Missing Value Source: NWS Daily Summary

Daily Weather History Graph

Daily Weather History Graph

Search for Another Location

Airport or City:

Trip Planner

Search our weather history database for the weather conditions in past years. The results will help you decide how hot, cold, wet, or windy it might be!

Date:

Astronomy

May. 31, 2013 Rise Set
Actual Time 6:10 AM CDT 9:03 PM CDT
Civil Twilight 5:37 AM CDT 9:36 PM CDT
Nautical Twilight 4:56 AM CDT 10:17 PM CDT
Astronomical Twilight 4:08 AM CDT 11:05 PM CDT
Moon 1:37 AM CDT (5/31) 1:29 PM CDT (5/31)
Length of Visible Light 15h 58m
Length of Day
14h 53m
Waning Gibbous, 51% of the Moon is Illuminated
May 31
Waning Gibbous
May 31
Last Quarter
Jun 8
New
Jun 16
First Quarter
Jun 23
Full

Hourly Weather History & Observations

Time (CDT) Temp. Dew Point Humidity Pressure Visibility Wind Dir Wind Speed Gust Speed Precip Events Conditions
12:15 AM 54.9 °F 48.6 °F 79% 29.70 in 10.0 mi WNW 9.2 mph - N/A   Clear
12:35 AM 55.6 °F 48.6 °F 77% 29.70 in 10.0 mi West 4.6 mph - N/A   Clear
12:55 AM 54.3 °F 48.2 °F 80% 29.69 in 10.0 mi SW 8.1 mph - N/A   Clear
1:15 AM 54.3 °F 48.6 °F 81% 29.71 in 10.0 mi West 4.6 mph - N/A   Clear
1:35 AM 54.0 °F 48.4 °F 81% 29.71 in 10.0 mi WSW 4.6 mph - N/A   Clear
1:55 AM 53.4 °F 48.6 °F 84% 29.72 in 10.0 mi West 6.9 mph - N/A   Clear
2:15 AM 56.5 °F 49.3 °F 77% 29.73 in 10.0 mi WNW 10.4 mph - N/A   Clear
2:35 AM 56.3 °F 48.7 °F 76% 29.73 in 10.0 mi WNW 10.4 mph - N/A   Clear
2:55 AM 55.2 °F 48.2 °F 77% 29.73 in 10.0 mi WNW 10.4 mph - N/A   Clear
3:15 AM 54.1 °F 48.0 °F 80% 29.73 in 10.0 mi WNW 9.2 mph - N/A   Clear
3:35 AM 53.8 °F 46.9 °F 78% 29.73 in 10.0 mi NW 12.7 mph 16.1 mph N/A   Clear
3:55 AM 55.4 °F 45.5 °F 69% 29.72 in 10.0 mi WNW 13.8 mph - N/A   Clear
4:15 AM 53.8 °F 45.9 °F 75% 29.72 in 10.0 mi WNW 10.4 mph - N/A   Clear
4:35 AM 53.6 °F 45.5 °F 74% 29.71 in 10.0 mi West 9.2 mph - N/A   Clear
4:55 AM 52.7 °F 45.5 °F 76% 29.72 in 10.0 mi West 6.9 mph - N/A   Clear
5:15 AM 51.8 °F 45.5 °F 79% 29.73 in 10.0 mi West 6.9 mph - N/A   Clear
5:35 AM 50.9 °F 45.5 °F 82% 29.72 in 10.0 mi West 6.9 mph - N/A   Clear
5:55 AM 50.2 °F 45.0 °F 82% 29.72 in 10.0 mi West 6.9 mph - N/A   Clear
6:15 AM 50.0 °F 45.0 °F 83% 29.72 in 10.0 mi West 5.8 mph - N/A   Clear
6:35 AM 50.4 °F 45.3 °F 83% 29.72 in 10.0 mi West 8.1 mph - N/A   Clear
6:55 AM 51.1 °F 46.4 °F 84% 29.72 in 10.0 mi West 8.1 mph - N/A   Clear
7:15 AM 52.7 °F 46.4 °F 79% 29.73 in 10.0 mi West 9.2 mph - N/A   Clear
7:35 AM 53.8 °F 46.8 °F 77% 29.71 in 10.0 mi West 9.2 mph - N/A   Clear
7:55 AM 55.8 °F 47.5 °F 74% 29.72 in 10.0 mi West 9.2 mph - N/A   Clear
8:15 AM 57.2 °F 48.9 °F 74% 29.73 in 10.0 mi West 10.4 mph - N/A   Clear
8:35 AM 59.0 °F 48.2 °F 67% 29.73 in 10.0 mi West 11.5 mph - N/A   Clear
8:55 AM 60.8 °F 49.3 °F 66% 29.73 in 10.0 mi West 11.5 mph - N/A   Clear
9:15 AM 63.0 °F 48.6 °F 59% 29.73 in 10.0 mi West 17.3 mph 21.9 mph N/A   Clear
9:35 AM 64.9 °F 48.6 °F 55% 29.72 in 10.0 mi West 15.0 mph 21.9 mph N/A   Clear
9:55 AM 65.3 °F 48.2 °F 54% 29.72 in 10.0 mi West 21.9 mph 26.5 mph N/A   Clear
10:15 AM 65.8 °F 48.2 °F 53% 29.72 in 10.0 mi West 17.3 mph 27.6 mph N/A   Clear
10:35 AM 67.1 °F 48.0 °F 50% 29.71 in 10.0 mi West 16.1 mph 27.6 mph N/A   Clear
10:55 AM 68.4 °F 46.2 °F 45% 29.71 in 10.0 mi WNW 19.6 mph 27.6 mph N/A   Clear
11:15 AM 68.9 °F 45.0 °F 42% 29.71 in 10.0 mi West 20.7 mph 29.9 mph N/A   Clear
11:35 AM 69.4 °F 45.3 °F 42% 29.72 in 10.0 mi WNW 23.0 mph 32.2 mph N/A   Clear
11:55 AM 69.8 °F 44.4 °F 40% 29.71 in 10.0 mi WNW 21.9 mph 29.9 mph N/A   Clear
12:15 PM 70.7 °F 45.7 °F 41% 29.71 in 10.0 mi WNW 21.9 mph 31.1 mph N/A   Clear
12:35 PM 71.2 °F 45.7 °F 40% 29.71 in 10.0 mi West 23.0 mph - N/A   Clear
12:55 PM 72.0 °F 44.6 °F 37% 29.72 in 10.0 mi West 24.2 mph 31.1 mph N/A   Clear
1:15 PM 72.5 °F 42.6 °F 34% 29.71 in 10.0 mi WNW 24.2 mph 31.1 mph N/A   Clear
1:35 PM 72.5 °F 39.4 °F 30% 29.71 in 5.0 mi West 26.5 mph 36.8 mph N/A   Haze
1:55 PM 72.9 °F 41.0 °F 32% 29.71 in 7.0 mi West 31.1 mph 35.7 mph N/A   Clear
2:15 PM 73.9 °F 42.1 °F 32% 29.71 in 10.0 mi WNW 28.8 mph 36.8 mph N/A   Clear
2:35 PM 74.1 °F 41.2 °F 31% 29.70 in 7.0 mi West 27.6 mph 35.7 mph N/A   Scattered Clouds
3:15 PM 73.6 °F 40.8 °F 31% 29.71 in 7.0 mi WNW 25.3 mph 34.5 mph N/A   Clear
3:35 PM 72.5 °F 41.9 °F 33% 29.72 in 10.0 mi WNW 24.2 mph 34.5 mph N/A   Clear
3:55 PM 73.6 °F 41.4 °F 31% 29.72 in 4.0 mi WNW 27.6 mph 36.8 mph N/A   Haze
4:15 PM 73.4 °F 43.2 °F 34% 29.73 in 10.0 mi WNW 23.0 mph 28.8 mph N/A   Scattered Clouds
4:35 PM 72.7 °F 43.5 °F 35% 29.73 in 10.0 mi WNW 24.2 mph 29.9 mph N/A   Mostly Cloudy
4:55 PM 72.5 °F 44.2 °F 36% 29.73 in 10.0 mi WNW 20.7 mph 29.9 mph N/A   Mostly Cloudy
5:15 PM 72.7 °F 43.5 °F 35% 29.73 in 10.0 mi West 19.6 mph 27.6 mph N/A   Scattered Clouds
5:35 PM 72.5 °F 41.0 °F 32% 29.74 in 7.0 mi West 25.3 mph 34.5 mph N/A   Clear
5:55 PM 72.0 °F 43.7 °F 36% 29.74 in 10.0 mi WNW 21.9 mph 32.2 mph N/A   Clear
6:15 PM 71.1 °F 42.8 °F 36% 29.75 in 10.0 mi NW 20.7 mph 31.1 mph N/A   Clear
6:35 PM 70.5 °F 42.8 °F 37% 29.74 in 10.0 mi NW 20.7 mph 26.5 mph N/A   Clear
6:55 PM 68.0 °F 42.6 °F 40% 29.74 in 10.0 mi WNW 19.6 mph 27.6 mph N/A   Clear
7:15 PM 68.2 °F 43.0 °F 40% 29.75 in 10.0 mi WNW 20.7 mph 29.9 mph N/A   Clear
7:35 PM 69.8 °F 42.8 °F 38% 29.76 in 10.0 mi NW 25.3 mph 29.9 mph N/A   Scattered Clouds
7:55 PM 65.1 °F 45.7 °F 49% 29.78 in 10.0 mi NW 25.3 mph 38.0 mph N/A   Scattered Clouds
8:15 PM 63.5 °F 42.3 °F 46% 29.79 in 10.0 mi NW 31.1 mph 39.1 mph N/A   Scattered Clouds
8:35 PM 62.1 °F 42.3 °F 48% 29.79 in 10.0 mi NW 24.2 mph 31.1 mph N/A   Clear
8:55 PM 61.0 °F 42.8 °F 51% 29.80 in 10.0 mi WNW 21.9 mph 32.2 mph N/A   Clear
9:15 PM 60.8 °F 42.6 °F 51% 29.80 in 10.0 mi WNW 21.9 mph 32.2 mph N/A   Clear
9:35 PM 59.0 °F 43.7 °F 57% 29.81 in 10.0 mi WNW 15.0 mph - N/A   Clear
9:55 PM 58.6 °F 43.7 °F 58% 29.82 in 10.0 mi NW 19.6 mph 27.6 mph N/A   Clear
10:15 PM 58.1 °F 44.2 °F 60% 29.83 in 10.0 mi WNW 15.0 mph - N/A   Clear
10:35 PM 57.7 °F 44.6 °F 62% 29.84 in 10.0 mi WNW 18.4 mph 23.0 mph N/A   Clear
10:55 PM 57.7 °F 44.4 °F 61% 29.84 in 10.0 mi NW 13.8 mph - N/A   Clear
11:15 PM 57.6 °F 43.9 °F 60% 29.84 in 10.0 mi WNW 21.9 mph 28.8 mph N/A   Clear
11:35 PM 56.7 °F 43.9 °F 62% 29.83 in 10.0 mi NW 21.9 mph 28.8 mph N/A   Clear
11:55 PM 56.7 °F 43.9 °F 62% 29.82 in 10.0 mi WNW 31.1 mph 39.1 mph N/A   Clear